| time (UTC) | temp C | wind direction | speed KPH | gust KPH | rain 1hr cm | rain 24hr cm | rain mn cm | humidity % | barometer mb |
| 20260505212430 | -17 | 1.6 | 3.2 | 0.00 | 0.00 | 0.00 | 1004.5 | ||
| 20260505211401 | -17 | 1.6 | 1.6 | 0.00 | 0.00 | 0.00 | 1004.5 | ||
| 20260505210330 | -17 | 0.0 | 0.0 | 0.00 | 0.00 | 0.00 | 1004.6 | ||
| 20260505204342 | -17 | 0.0 | 0.0 | 0.00 | 0.00 | 0.00 | 1004.6 | ||
| 20260505203313 | -17 | 0.0 | 0.0 | 0.00 | 0.00 | 0.00 | 1004.8 | ||
| 20260505201524 | -17 | 0.0 | 1.6 | 0.00 | 0.00 | 0.00 | 1004.6 | ||
| 20260505200455 | -17 | 0.0 | 0.0 | 0.00 | 0.00 | 0.00 | 1004.6 | ||
| 20260505193740 | -17 | 0.0 | 1.6 | 0.00 | 0.00 | 0.00 | 1004.5 | ||
| 20260505192608 | -17 | 0.0 | 0.0 | 0.00 | 0.00 | 0.00 | 1004.3 | ||
| 20260505191539 | -17 | 0.0 | 0.0 | 0.00 | 0.00 | 0.00 | 1004.2 | ||
| 20260505183653 | -17 | 0.0 | 0.0 | 0.00 | 0.00 | 0.00 | 1004.0 | ||
| 20260505181859 | -17 | 0.0 | 1.6 | 0.00 | 0.00 | 0.00 | 1003.9 | ||
| 20260505180830 | -17 | 0.0 | 0.0 | 0.00 | 0.00 | 0.00 | 1004.0 | ||
| 20260505175756 | -17 | 3.2 | 4.8 | 0.00 | 0.00 | 0.00 | 1003.8 | ||
| 20260505174726 | -17 | 0.0 | 4.8 | 0.00 | 0.00 | 0.00 | 1004.1 | ||
| 20260505173656 | -17 | 1.6 | 4.8 | 0.00 | 0.00 | 0.00 | 1004.2 | ||
| 20260505172627 | -17 | 0.0 | 3.2 | 0.00 | 0.00 | 0.00 | 1004.3 | ||
| 20260505171557 | -17 | 0.0 | 3.2 | 0.00 | 0.00 | 0.00 | 1004.3 | ||
| 20260505170528 | -17 | 0.0 | 6.4 | 0.00 | 0.00 | 0.00 | 1004.4 | ||
| 20260505165456 | -17 | 3.2 | 6.4 | 0.00 | 0.00 | 0.00 | 1004.4 | ||
| 20260505164427 | -17 | 1.6 | 6.4 | 0.00 | 0.00 | 0.00 | 1004.4 | ||
| 20260505163357 | -17 | 0.0 | 4.8 | 0.00 | 0.00 | 0.00 | 1004.5 | ||
| 20260505162327 | -17 | 1.6 | 4.8 | 0.00 | 0.00 | 0.00 | 1004.4 | ||
| 20260505161257 | -17 | 0.0 | 1.6 | 0.00 | 0.00 | 0.00 | 1004.2 | ||
| 20260505160226 | -17 | 1.6 | 4.8 | 0.00 | 0.00 | 0.00 | 1004.4 | ||
| 20260505153055 | -17 | 4.8 | 6.4 | 0.00 | 0.00 | 0.00 | 1004.5 | ||
| 20260505152023 | -17 | 1.6 | 1.6 | 0.00 | 0.00 | 0.00 | 1004.5 | ||
| 20260505150952 | -17 | 0.0 | 4.8 | 0.00 | 0.00 | 0.00 | 1004.4 | ||
| 20260505125009 | -17 | 3.2 | 4.8 | 0.00 | 0.00 | 0.00 | 1005.0 | ||
| 20260505123936 | -17 | 0.0 | 1.6 | 0.00 | 0.00 | 0.00 | 1005.0 | ||
| 20260505122907 | -17 | 0.0 | 4.8 | 0.00 | 0.00 | 0.00 | 1005.0 | ||
| 20260505121837 | -17 | 3.2 | 3.2 | 0.00 | 0.00 | 0.00 | 1004.9 | ||
| 20260505120807 | -17 | 1.6 | 4.8 | 0.00 | 0.00 | 0.00 | 1004.8 | ||
| 20260505115736 | -17 | 0.0 | 3.2 | 0.00 | 0.00 | 0.00 | 1005.0 | ||
| 20260505114707 | -17 | 1.6 | 1.6 | 0.00 | 0.00 | 0.00 | 1004.9 | ||
| 20260505113637 | -17 | 3.2 | 3.2 | 0.00 | 0.00 | 0.00 | 1004.9 | ||
| 20260505112607 | -17 | 0.0 | 1.6 | 0.00 | 0.00 | 0.00 | 1004.9 | ||
| 20260505111538 | -17 | 0.0 | 0.0 | 0.00 | 0.00 | 0.00 | 1005.1 | ||
| 20260505110507 | -17 | 1.6 | 3.2 | 0.00 | 0.00 | 0.00 | 1005.0 | ||
| 20260505101848 | -17 | 0.0 | 0.0 | 0.00 | 0.00 | 0.00 | 1004.9 | ||
| 20260505100818 | -17 | 0.0 | 0.0 | 0.00 | 0.00 | 0.00 | 1005.0 | ||
| 20260505094613 | -17 | 0.0 | 1.6 | 0.00 | 0.00 | 0.00 | 1005.0 | ||
| 20260505093545 | -17 | 1.6 | 3.2 | 0.00 | 0.00 | 0.00 | 1004.9 | ||
| 20260505092310 | -17 | 0.0 | 0.0 | 0.00 | 0.00 | 0.00 | 1004.8 | ||
| 20260505090931 | -17 | 0.0 | 0.0 | 0.00 | 0.00 | 0.00 | 1004.8 | ||
| 20260505085901 | -17 | 0.0 | 0.0 | 0.00 | 0.00 | 0.00 | 1004.7 | ||
| 20260505084214 | -17 | 0.0 | 1.6 | 0.00 | 0.00 | 0.00 | 1004.6 | ||
| 20260505083142 | -17 | 0.0 | 0.0 | 0.00 | 0.00 | 0.00 | 1004.5 | ||
| 20260505081703 | -17 | 1.6 | 1.6 | 0.00 | 0.00 | 0.00 | 1004.4 | ||
| 20260505080630 | -17 | 0.0 | 0.0 | 0.00 | 0.00 | 0.00 | 1004.4 | ||
| 20260505075600 | -17 | 0.0 | 0.0 | 0.00 | 0.00 | 0.00 | 1004.5 | ||
| 20260505074429 | -17 | 3.2 | 4.8 | 0.00 | 0.00 | 0.00 | 1004.3 | ||
| 20260505073359 | -17 | 0.0 | 8.0 | 0.00 | 0.00 | 0.00 | 1004.6 | ||
| 20260505072327 | -17 | 3.2 | 6.4 | 0.00 | 0.00 | 0.00 | 1004.5 | ||
| 20260505071249 | -17 | 0.0 | 1.6 | 0.00 | 0.00 | 0.00 | 1004.0 | ||
| 20260505070117 | -17 | 0.0 | 4.8 | 0.00 | 0.00 | 0.00 | 1003.9 | ||
| 20260505065047 | -17 | 0.0 | 1.6 | 0.00 | 0.00 | 0.00 | 1003.7 | ||
| 20260505063916 | -17 | 0.0 | 0.0 | 0.00 | 0.00 | 0.00 | 1003.6 | ||
| 20260505062641 | -17 | 0.0 | 0.0 | 0.00 | 0.00 | 0.00 | 1003.5 | ||
| 20260505061509 | -17 | 0.0 | 0.0 | 0.00 | 0.00 | 0.00 | 1003.5 | ||
| 20260505060132 | -17 | 0.0 | 0.0 | 0.00 | 0.00 | 0.00 | 1003.5 | ||
| 20260505054857 | -17 | 0.0 | 1.6 | 0.00 | 0.00 | 0.00 | 1003.4 | ||
| 20260505053828 | -17 | 0.0 | 0.0 | 0.00 | 0.00 | 0.00 | 1003.1 | ||
| 20260505051628 | -17 | 0.0 | 1.6 | 0.00 | 0.00 | 0.00 | 1003.0 | ||
| 20260505050559 | -17 | 0.0 | 1.6 | 0.00 | 0.00 | 0.00 | 1003.0 | ||
| 20260505041127 | -17 | 0.0 | 1.6 | 0.00 | 0.00 | 0.00 | 1003.0 | ||
| 20260505040058 | -17 | 0.0 | 3.2 | 0.00 | 0.00 | 0.00 | 1003.0 | ||
| 20260505035029 | -17 | 0.0 | 4.8 | 0.00 | 0.00 | 0.00 | 1003.0 | ||
| 20260505033958 | -17 | 0.0 | 1.6 | 0.00 | 0.00 | 0.00 | 1003.1 | ||
| 20260505032924 | -17 | 3.2 | 8.0 | 0.00 | 0.00 | 0.00 | 1003.0 | ||
| 20260505031852 | -17 | 4.8 | 6.4 | 0.00 | 0.00 | 0.00 | 1003.5 | ||
| 20260505030822 | -17 | 1.6 | 4.8 | 0.00 | 0.00 | 0.00 | 1003.9 | ||
| 20260505025754 | -17 | 1.6 | 1.6 | 0.00 | 0.00 | 0.00 | 1003.8 | ||
| 20260505024725 | -17 | 1.6 | 4.8 | 0.00 | 0.00 | 0.00 | 1003.9 | ||
| 20260505023657 | -17 | 0.0 | 1.6 | 0.00 | 0.00 | 0.00 | 1004.1 | ||
| 20260505022623 | -17 | 0.0 | 0.0 | 0.00 | 0.00 | 0.00 | 1004.4 | ||
| 20260505021554 | -17 | 1.6 | 4.8 | 0.00 | 0.00 | 0.00 | 1004.4 | ||
| 20260505020525 | -17 | 3.2 | 4.8 | 0.00 | 0.00 | 0.00 | 1004.2 | ||
| 20260505015455 | -17 | 0.0 | 6.4 | 0.00 | 0.00 | 0.00 | 1004.3 | ||
| 20260505014426 | -17 | 3.2 | 4.8 | 0.00 | 0.00 | 0.00 | 1004.1 | ||
| 20260505013357 | -17 | 1.6 | 3.2 | 0.00 | 0.00 | 0.00 | 1004.3 | ||
| 20260505012328 | -17 | 0.0 | 4.8 | 0.00 | 0.00 | 0.00 | 1004.5 | ||
| 20260505011259 | -17 | 1.6 | 4.8 | 0.00 | 0.00 | 0.00 | 1004.9 | ||
| 20260505010228 | -17 | 3.2 | 4.8 | 0.00 | 0.00 | 0.00 | 1005.1 | ||
| 20260505005159 | -17 | 1.6 | 3.2 | 0.00 | 0.00 | 0.00 | 1005.3 | ||
| 20260505004130 | -17 | 1.6 | 3.2 | 0.00 | 0.00 | 0.00 | 1005.5 | ||
| 20260505003100 | -17 | 0.0 | 1.6 | 0.00 | 0.00 | 0.00 | 1005.5 | ||
| 20260505002032 | -17 | 1.6 | 3.2 | 0.00 | 0.00 | 0.00 | 1005.9 | ||
| 20260505000900 | -17 | 0.0 | 1.6 | 0.00 | 0.00 | 0.00 | 1006.1 | ||
| 20260504235831 | -17 | 0.0 | 4.8 | 0.00 | 0.00 | 0.00 | 1006.0 | ||
| 20260504234800 | -17 | 1.6 | 1.6 | 0.00 | 0.00 | 0.00 | 1006.1 | ||
| 20260504233733 | -17 | 1.6 | 4.8 | 0.00 | 0.00 | 0.00 | 1006.2 | ||
| 20260504232705 | -17 | 3.2 | 4.8 | 0.00 | 0.00 | 0.00 | 1006.3 | ||
| 20260504231637 | -17 | 3.2 | 6.4 | 0.00 | 0.00 | 0.00 | 1006.6 | ||
| 20260504230604 | -17 | 3.2 | 4.8 | 0.00 | 0.00 | 0.00 | 1006.8 | ||
| 20260504225535 | -17 | 3.2 | 6.4 | 0.00 | 0.00 | 0.00 | 1007.0 | ||
| 20260504224507 | -17 | 3.2 | 4.8 | 0.00 | 0.00 | 0.00 | 1007.1 | ||
| 20260504223438 | -17 | 1.6 | 4.8 | 0.18 | 0.00 | 0.00 | 1007.2 | ||
| 20260504222409 | -17 | 1.6 | 1.6 | 0.18 | 0.00 | 0.00 | 1007.4 | ||
| 20260504221340 | -17 | 1.6 | 4.8 | 0.18 | 0.00 | 0.00 | 1007.2 | ||
| 20260504220312 | -17 | 0.0 | 3.2 | 0.18 | 0.00 | 0.00 | 1007.3 | ||
| 20260504215243 | -17 | 0.0 | 3.2 | 0.18 | 0.00 | 0.00 | 1007.5 | ||
| 20260504214215 | -17 | 1.6 | 3.2 | 0.08 | 0.00 | 0.00 | 1008.0 | ||
| 20260504213146 | -17 | 0.0 | 1.6 | 0.00 | 0.00 | 0.00 | 1007.9 |